Hurricane Symbol View the latest observations near East Pacific Tropical Storm Bud.

Station 51WH0 - WHOTS - Woods Hole Ocean Time-series Image indicating link to RSS feed of recent meteorological observations for station 51WH0


Conditions at 51WH0 as of
(1:30 pm HAST)
2330 GMT on 07/24/2024:
     

Click on the graph icon in the table below to see a time series plot of the last five days of that observation.

5-day plot - Wind Direction Wind Direction (WDIR): E ( 100 deg true )
5-day plot - Wind Speed Wind Speed (WSPD): 17.5 kts
5-day plot - Atmospheric Pressure Atmospheric Pressure (PRES):30.07 in
5-day plot - Air Temperature Air Temperature (ATMP): 78.1 °F
5-day plot - Water Temperature Water Temperature (WTMP): 78.6 °F
5-day plot - Salinity Salinity (SAL): 35.20 psu
5-day plot - Dew Point Dew Point (DEWP): 73.0 °F
5-day plot - Heat Index Heat Index (HEAT): 80.6 °F
5-day plot - Wind Speed at 10 Meters Wind Speed at 10 meters (WSPD10M): 19.4 kts
5-day plot - Wind Speed at 20 Meters Wind Speed at 20 meters (WSPD20M): 21.4 kts
5-day plot -  Wind Speed, Wind Gust and Atmospheric Pressure Combined plot of Wind Speed, Gust, and Air Pressure
Previous observations
TIME
(HAST)
5-day plot - Wind Direction
WDIR
 
5-day plot - Wind Speed
WSPD
kts
5-day plot - Wind Gust
GST
kts
5-day plot - Wave Height
WVHT
ft
5-day plot - Dominant Wave Period
DPD
sec
5-day plot - Average Wave Period
APD
sec
5-day plot - Mean Wave Direction
MWD
 
5-day plot - Atmospheric Pressure
PRES
in
5-day plot - Pressure Tendency
PTDY
in
5-day plot - Air Temperature
ATMP
°F
5-day plot - Water Temperature
WTMP
°F
5-day plot - Dew Point
DEWP
°F
5-day plot - Salinity
SAL
psu
5-day plot - Visibility
VIS
nmi
5-day plot - Tide (above MLLW)
TIDE
ft
2024-07-24 12:30 pm E 17.5-----30.09- 78.3 78.6 72.9 35.20--
2024-07-24 11:30 am E 15.5-----30.10- 79.0 78.6 72.3 35.20--
2024-07-24 10:30 am E 17.5-----30.10- 79.0 78.6 72.0 35.20--
2024-07-24 09:30 am E 15.5-----30.09- 78.8 78.6 72.5 35.20--
2024-07-24 08:30 am E 13.6-----30.09- 78.4 78.4 73.0 35.10--
2024-07-24 07:30 am E 13.6-----30.08- 77.7 78.4 72.5 35.20--
2024-07-24 06:30 am E 15.5-----30.07- 76.8 78.4 72.7 35.10--
2024-07-24 05:30 am E 13.6-----30.05- 78.1 78.4 72.0 35.10--
2024-07-24 04:30 am E 15.5-----30.04- 78.1 78.4 71.8 35.10--
2024-07-24 03:30 am E 15.5-----30.04- 78.1 78.6 71.8 35.10--
2024-07-24 02:30 am E 15.5-----30.04- 78.1 78.6 71.4 35.10--
2024-07-24 01:30 am E 15.5-----30.06- 78.3 78.6 71.6 35.10--
2024-07-24 12:30 am E 15.5-----30.07- 78.4 78.6 71.8 35.10--
2024-07-23 11:30 pm E 15.5-----30.07- 78.6 78.6 72.5 35.10--
2024-07-23 10:30 pm E 15.5-----30.07- 78.6 78.6 72.5 35.10--
2024-07-23 09:30 pm E 15.5-----30.05- 78.6 78.6 72.5 35.20--
2024-07-23 08:30 pm E 15.5-----30.04- 78.6 78.6 72.7 35.10--
2024-07-23 07:30 pm E 13.6-----30.03- 78.1 78.8 73.6 35.10--
2024-07-23 06:30 pm E 13.6-----30.01- 78.4 78.8 73.2 35.10--
2024-07-23 05:30 pm E 13.6-----30.01- 78.3 78.8 72.7 35.10--
2024-07-23 04:30 pm E 13.6-----30.01- 78.3 78.8 73.0 35.10--
2024-07-23 03:30 pm E 13.6-----30.01- 77.9 78.8 72.9 35.10--
2024-07-23 02:30 pm E 13.6-----30.03- 77.7 78.8 73.0 35.10--

Ocean Conditions at 51WH0 as of
(1:30 pm HAST)
2330 GMT on 07/24/2024:

These oceanographic data are displayed in rounded times.

     

Click on the graph icon in the table below to see a time series plot of the last five days of that observation.

Depth (DEPTH): 3.3 ft
5-day plot - Ocean Temperature Ocean Temperature (OTMP):78.62 °F
5-day plot - Salinity Salinity (SAL):35.20 psu
Previous observations
TIME
(HAST)
DEPTH
ft
5-day plot - Ocean Temperature
OTMP
°F
5-day plot - Conductivity
COND
mS/cm
5-day plot - Salinity
SAL
psu
5-day plot - Oxygen Concentration
O2%
%
5-day plot - Oxygen Concentration
O2PPM
ppm
5-day plot - Chlorophyll
CLCON
ug/l
5-day plot - Turbidity
TURB
FTU
5-day plot - pH
PH
 
5-day plot - Eh
EH
mv
2024-07-24 12:30 pm 3.378.62-35.20------
2024-07-24 11:30 am 3.378.62-35.20------
2024-07-24 10:30 am 3.378.62-35.20------
2024-07-24 09:30 am 3.378.62-35.20------
2024-07-24 08:30 am 3.378.44-35.10------
2024-07-24 07:30 am 3.378.44-35.20------
2024-07-24 06:30 am 3.378.44-35.10------
2024-07-24 05:30 am 3.378.44-35.10------
2024-07-24 04:30 am 3.378.44-35.10------
2024-07-24 03:30 am 3.378.62-35.10------
2024-07-24 02:30 am 3.378.62-35.10------
2024-07-24 01:30 am 3.378.62-35.10------
2024-07-24 12:30 am 3.378.62-35.10------
2024-07-23 11:30 pm 3.378.62-35.10------
2024-07-23 10:30 pm 3.378.62-35.10------
2024-07-23 09:30 pm 3.378.62-35.20------
2024-07-23 08:30 pm 3.378.62-35.10------
2024-07-23 07:30 pm 3.378.80-35.10------
2024-07-23 06:30 pm 3.378.80-35.10------
2024-07-23 05:30 pm 3.378.80-35.10------
2024-07-23 04:30 pm 3.378.80-35.10------
2024-07-23 03:30 pm 3.378.80-35.10------
2024-07-23 02:30 pm 3.378.80-35.10------

Solar Radiation Conditions at 51WH0 as of
(1:30 pm HAST)
2330 GMT on 07/24/2024:
     

Click on the graph icon in the table below to see a time series plot of the last five days of that observation.

5-day plot - Short Wave Radiation 2 Short Wave Radiation 2 (SWRAD): 920.7watts/meter2
5-day plot - Long Wave Radiation Long Wave Radiation (LWRAD): 417.1watts/meter2
Previous observations
TIME
(HAST)
5-day plot - Short Wave Radiation 1
SRAD1
w/m2
5-day plot - Short Wave Radiation 2
SRAD2
w/m2
5-day plot - Long Wave Radiation
LRAD
w/m2
2024-07-24 12:30 pm- 853.2 413.5
2024-07-24 11:30 am- 898.8 396.3
2024-07-24 10:30 am- 822.0 389.2
2024-07-24 09:30 am- 573.4 393.6
2024-07-24 08:30 am- 392.5 395.3
2024-07-24 07:30 am- 212.0 411.6
2024-07-24 06:30 am- 33.8 417.3
2024-07-24 05:30 am- 5.4 394.4
2024-07-24 04:30 am- 5.1 385.8
2024-07-24 03:30 am- 5.1 384.6
2024-07-24 02:30 am- 5.0 383.6
2024-07-24 01:30 am- 5.1 383.4
2024-07-24 12:30 am- 5.1 385.9
2024-07-23 11:30 pm- 5.0 398.8
2024-07-23 10:30 pm- 5.1 395.5
2024-07-23 09:30 pm- 5.1 398.4
2024-07-23 08:30 pm- 5.3 399.9
2024-07-23 07:30 pm- 9.2 398.3
2024-07-23 06:30 pm- 120.5 405.6
2024-07-23 05:30 pm- 355.6 394.4
2024-07-23 04:30 pm- 515.4 403.1
2024-07-23 03:30 pm- 779.6 395.4
2024-07-23 02:30 pm- 911.4 400.1